Zurück zum Katalog

STARLINK-33764

AktivKommunikationVLEO
NORAD 63510·PAYLOAD·🇺🇸 United States

Gestartet Apr 7, 2025 von Vandenberg Space Force Base

Loading…

Nächste Überflüge (nächste 24 Stunden)

TLE

AktuellSource: CelesTrak SupGP

Epoche: Sep 15, 2026, 02:41 UTC

1 63510C 25071T   26258.11229167  .00072260  00000+0  21353-2 0  2582
2 63510  53.1573 338.6083 0001201  90.6187 195.2128 15.34349799    10

Verfolge STARLINK-33764 in Echtzeit mit AllMySat

Download on the App Store